Location: *
(48.8780°N, 19.2358°E)
Time: 09:58:46
(UTC+00:00)

Cosmos 1992 Rocket - Pass Details

Date: 18 October 2019
Orbit: 760 x 765 km, 74.0° (Epoch: 18 November)

Event Time Altitude Azimuth Distance (km) Brightness Sun altitude
Rises 16:12:34 0° 193° (SSW) 3,215 7.5 -4.7°
Reaches altitude 10° 16:14:56 10° 191° (S) 2,293 6.8 -5.1°
Maximum altitude 16:20:06 68° 109° (ESE) 821 4.0 -5.9°
Drops below altitude 10° 16:25:17 10° 27° (NNE) 2,306 6.2 -6.8°
Sets 16:27:40 0° 26° (NNE) 3,235 6.9 -7.2°
